[[{"header":{"parameterUnit":"m.s-1","parameterCategory":1,"la1":30.2991,"la2":30.254,"lo1":-89.0895,"lo2":-89.0444,"dy":0.0017,"dx":0.0017,"nx":28,"ny":28,"refTime":"2025-01-14T03:00:00:Z","depth":0,"parameterNumber":2,"parameterNumberName":"U-component_of_WINDS"},"data":[0,0,0,0,0,0,0,0,0,0,0,0,0,0,0,0,0,0,0,0,0,0,0,0,0,0,0,0,0,0,0,0,0,0,0,0,0,0,0,0,0,0,0,0,0,0,0,0,0,0,0,0,0,0,0,0,0,0,-2.7046,-2.7046,0,-2.7033,-2.7032,-2.7032,-2.6876,-2.6873,-2.6869,-2.6865,-2.6857,-2.686,-2.6864,0,0,0,0,0,0,0,0,0,0,0,0,0,-2.6942,-2.6944,-2.7046,-2.7046,-2.7046,-2.7033,-2.7032,-2.7032,-2.6877,-2.6872,-2.6868,-2.6863,-2.6856,-2.686,-2.6864,0,0,0,0,0,0,0,0,0,0,0,0,0,-2.6964,-2.6945,-2.7046,-2.6966,-2.6959,-2.7033,-2.7032,-2.7032,-2.6878,-2.6872,-2.6866,-2.6861,-2.6854,-2.6859,-2.6864,-2.7015,0,0,-2.688,-2.6882,0,0,0,0,0,0,0,0,-2.6963,-2.6968,-2.6978,-2.6972,-2.6964,-2.695,-2.6992,-2.7026,-2.688,-2.6909,-2.6865,-2.6858,-2.6893,-2.6895,-2.6905,-2.7014,-2.7014,-2.6881,-2.6884,-2.6886,-2.6888,0,0,0,0,0,0,0,-2.6961,-2.6968,-2.7041,-2.6979,-2.697,-2.6933,-2.693,-2.6998,-2.6935,-2.6906,-2.6895,-2.6895,-2.6888,-2.6901,-2.6904,-2.7014,-2.6881,-2.6885,-2.6888,-2.689,-2.7246,-2.7252,0,0,0,0,0,0,-2.697,-2.6967,-2.7041,-2.704,-2.6949,-2.694,-2.6936,-2.6961,-2.6933,-2.6923,-2.69,-2.6888,-2.6895,-2.6898,-2.6903,-2.7078,-2.6886,-2.6891,-2.6894,-2.724,-2.7247,-2.7254,0,0,0,0,0,0,-2.6969,-2.6978,-2.7042,-2.7001,-2.7006,-2.6948,-2.6977,-2.6963,-2.6976,-2.6929,-2.6917,-2.6925,-2.689,-2.6896,-2.6988,-2.7076,-2.6893,-2.6898,-2.7232,-2.7242,-2.7251,-2.7429,0,0,0,0,0,0,-2.6966,-2.6979,-2.7034,-2.7003,-2.7009,-2.7126,-2.6982,-2.6967,-2.6985,-2.6968,-2.6948,-2.694,-2.6886,-2.6981,-2.6993,-2.7079,-2.6902,-2.7224,-2.7237,-2.7248,-2.7416,-2.7444,-2.7468,0,0,0,0,0,-2.6963,-2.7086,-2.7038,-2.7048,-2.7077,-2.7131,-2.7135,-2.7069,-2.6992,-2.7049,-2.7018,-2.694,-2.7063,-2.6992,-2.7004,-2.7093,-2.7218,-2.7233,-2.7247,-2.7404,-2.7438,-2.7467,0,0,0,0,0,0,-2.7132,-2.7081,-2.7027,-2.7143,-2.7142,-2.7105,-2.7174,-2.7108,-2.7131,-2.7115,-2.7033,-2.703,-2.7136,-2.7123,-2.7044,-2.7237,-2.7127,-2.7145,-2.7242,-2.7275,-2.7301,-2.7303,-2.6906,0,0,0,0,0,-2.7182,-2.7229,-2.7182,-2.729,-2.7292,-2.7233,-2.7255,-2.7204,-2.7201,-2.72,-2.7176,-2.7178,-2.7217,-2.7245,-2.7278,-2.7412,-2.7406,-2.7479,-2.7505,-2.7527,-2.7545,-2.7616,-2.7648,-2.7301,-2.7301,-2.7301,0,0,-2.7287,-2.7265,-2.73,-2.7323,-2.7316,-2.7369,-2.7234,-2.7295,-2.7334,-2.721,-2.7296,-2.7278,-2.7274,-2.7389,-2.7438,-2.7382,-2.7638,-2.7545,-2.7563,-2.7568,-2.7634,-2.7667,-2.7696,-2.7311,-2.7309,-2.7307,0,0,-2.7506,-2.7493,-2.7581,-2.7577,-2.7568,-2.7528,-2.755,-2.7522,-2.7505,-2.7589,-2.7498,-2.7543,-2.7611,-2.7612,-2.7622,-2.784,-2.7771,-2.7853,-2.7992,-2.8063,-2.809,-2.8114,-2.8194,-2.8224,-2.787,-2.787,-2.787,0,-2.7639,-2.7712,-2.7636,-2.7703,-2.7716,-2.7604,-2.7694,-2.7694,-2.7698,-2.771,-2.7646,-2.7729,-2.7719,-2.7833,-2.7886,-2.7896,-2.792,-2.7857,-2.8092,-2.8115,-2.8136,-2.8212,-2.8242,-2.788,-2.7879,-2.7878,-2.7877,0,-2.7877,-2.7929,-2.8002,-2.8006,-2.8027,-2.8106,-2.8043,-2.8073,-2.802,-2.7988,-2.8075,-2.8058,-2.8086,-2.8108,-2.8058,-2.8215,-2.8181,-2.8106,-2.7994,-2.8181,-2.8251,-2.8279,-2.7895,-2.7892,-2.7888,-2.7886,0,0,-2.8205,-2.8164,-2.8193,-2.8193,-2.8175,-2.8215,-2.8288,-2.8313,-2.8342,-2.8348,-2.8409,-2.8469,-2.8399,-2.841,-2.8358,-2.842,-2.8596,-2.8337,-2.8335,-2.8388,-2.8771,-2.883,-2.8864,-2.8548,-2.8553,-2.8557,-2.8772,0,-2.8418,-2.8539,-2.8472,-2.8604,-2.8653,-2.8546,-2.861,-2.8606,-2.8577,-2.8615,-2.8583,-2.8628,-2.8531,-2.8537,-2.8593,-2.8563,-2.8672,-2.8546,-2.8607,-2.861,-2.8614,-2.89,-2.8963,-2.9167,-2.8798,-2.8803,-2.8806,0,-2.8683,-2.8698,-2.8835,-2.8807,-2.8825,-2.8884,-2.8902,-2.8938,-2.8932,-2.8907,-2.8919,-2.8852,-2.8923,-2.881,-2.8909,-2.8825,-2.8845,-2.8834,-2.884,-2.8846,-2.8722,-2.8917,-2.923,-2.9262,-2.8848,-2.8845,-2.8842,0,-2.8912,-2.8966,-2.9055,-2.9059,-2.9028,-2.9072,-2.9061,-2.9049,-2.9069,-2.9085,-2.9097,-2.9122,-2.9136,-2.9158,-2.91,-2.9022,-2.9207,-2.9089,-2.9191,-2.9193,-2.9237,-2.9236,-2.9561,-2.9246,-2.9245,-2.9245,-2.9244,0,-2.9158,-2.9247,-2.9157,-2.9213,-2.9309,-2.923,-2.9328,-2.9306,-2.9296,-2.9346,-2.9255,-2.9304,-2.9223,-2.9265,-2.922,-2.931,-2.9316,-2.93,-2.9287,-2.931,-2.9312,-2.9324,-2.931,-2.9253,-2.9251,-2.9249,-2.9248,0,-2.9432,-2.9375,-2.9465,-2.9427,-2.942,-2.9493,-2.9461,-2.9512,-2.9475,-2.954,-2.955,-2.9494,-2.9539,-2.9482,-2.9521,-2.9491,-2.9614,-2.9579,-2.9617,-2.9608,-2.9713,-2.9705,-3.006,-3.0104,-2.9758,-2.9762,-2.9764,0,-2.9594,-2.9659,-2.9628,-2.9654,-2.9649,-2.9692,-2.9711,-2.9636,-2.966,-2.9657,-2.9709,-2.9745,-2.977,-2.9846,-2.981,-2.984,-2.9807,-2.9929,-2.9811,-2.9832,-2.9812,-2.981,-2.9817,-2.9955,-2.9959,-2.9962,-2.9965,0,-2.989,-2.9858,-2.9888,-2.9909,-2.9934,-2.9947,-2.9953,-2.998,-2.9902,-2.9934,-2.9977,-2.9996,-3.0035,-3.0073,-3.0093,-3.0083,-3.0013,-3.0001,-3.0027,-3.0053,-3.0073,-3.0066,-2.9686,-2.9995,-2.9992,-2.999,-2.9988,-2.9987,-3.0114,-3.0168,-3.0154,-3.0191,-3.0187,-3.0195,-3.024,-3.0209,-3.0243,-3.0268,-3.0221,-3.0277,-3.0269,-3.0288,-3.0287,-3.033,-3.0278,-3.0314,-3.0324,-3.0335,-3.0352,-3.0063,-3.0333,-3.0332,-3.0331,-3.0331,-3.033,0,-3.0407,-3.0393,-3.0427,-3.0438,-3.0467,-3.0394,-3.0397,-3.0427,-3.0477,-3.0474,-3.05,-3.0551,-3.0587,-3.0553,-3.0582,-3.0624,-3.0593,-3.0635,-3.0633,-3.0632,-3.0396,-3.0372,-3.066,-3.066,-3.066,-3.066,-3.066,-3.066,-3.0564,-3.065,-3.0617,-3.0702,-3.0686,-3.0738,-3.0747,-3.0754,-3.0752,-3.0812,-3.0841,-3.0817,-3.0803,-3.083,-3.0861,-3.085,-3.0866,-3.0921,-3.0899,-3.0681,-3.0648,-3.0618,-3.0595,-3.0924,-3.0925,-3.1131,-3.1133,-3.1135]},{"header":{"parameterUnit":"m.s-1","parameterCategory":1,"la1":30.2991,"la2":30.254,"lo1":-89.0895,"lo2":-89.0444,"dy":0.0017,"dx":0.0017,"nx":28,"ny":28,"refTime":"2025-01-14T03:00:00:Z","depth":0,"parameterNumber":3,"parameterNumberName":"V-component_of_WINDS"},"data":[0,0,0,0,0,0,0,0,0,0,0,0,0,0,0,0,0,0,0,0,0,0,0,0,0,0,0,0,0,0,0,0,0,0,0,0,0,0,0,0,0,0,0,0,0,0,0,0,0,0,0,0,0,0,0,0,0,0,-2.5203,-2.5204,0,-2.525,-2.5251,-2.5251,-2.525,-2.5249,-2.5248,-2.5248,-2.5293,-2.5295,-2.5297,0,0,0,0,0,0,0,0,0,0,0,0,0,-2.5109,-2.5111,-2.5203,-2.5204,-2.5204,-2.525,-2.5251,-2.5251,-2.525,-2.5249,-2.5248,-2.5247,-2.5293,-2.5295,-2.5297,0,0,0,0,0,0,0,0,0,0,0,0,0,-2.5152,-2.5112,-2.5203,-2.5209,-2.521,-2.525,-2.5251,-2.5251,-2.525,-2.5249,-2.5248,-2.5247,-2.5292,-2.5295,-2.5297,-2.5333,0,0,-2.5306,-2.5307,0,0,0,0,0,0,0,0,-2.515,-2.5156,-2.5208,-2.5209,-2.521,-2.5243,-2.5234,-2.5279,-2.525,-2.5235,-2.5248,-2.5247,-2.5277,-2.5281,-2.5292,-2.5335,-2.5337,-2.5306,-2.5307,-2.5309,-2.5309,0,0,0,0,0,0,0,-2.5147,-2.5154,-2.5222,-2.5208,-2.521,-2.5208,-2.5213,-2.5243,-2.5261,-2.5236,-2.5236,-2.5242,-2.5278,-2.5289,-2.5293,-2.5338,-2.5306,-2.5308,-2.531,-2.5311,-2.5411,-2.5412,0,0,0,0,0,0,-2.5143,-2.5151,-2.522,-2.5223,-2.5177,-2.5211,-2.5217,-2.5233,-2.526,-2.5264,-2.5242,-2.5241,-2.5285,-2.529,-2.5294,-2.5337,-2.5309,-2.5311,-2.5313,-2.541,-2.5412,-2.5413,0,0,0,0,0,0,-2.5141,-2.5149,-2.5218,-2.5187,-2.5196,-2.5214,-2.5232,-2.5235,-2.5246,-2.5265,-2.5268,-2.5251,-2.5284,-2.5291,-2.5323,-2.5339,-2.5312,-2.5315,-2.5409,-2.5411,-2.5412,-2.5424,0,0,0,0,0,0,-2.5138,-2.5149,-2.5163,-2.5188,-2.5198,-2.5247,-2.5233,-2.5236,-2.5251,-2.5251,-2.5274,-2.5277,-2.5284,-2.5319,-2.5326,-2.5342,-2.5317,-2.5408,-2.541,-2.5412,-2.5422,-2.5426,-2.5428,0,0,0,0,0,-2.5135,-2.5165,-2.5164,-2.5172,-2.5217,-2.5248,-2.5254,-2.5262,-2.5253,-2.5267,-2.5279,-2.5277,-2.5336,-2.5323,-2.533,-2.5347,-2.5407,-2.5409,-2.5411,-2.5421,-2.5425,-2.5428,0,0,0,0,0,0,-2.5141,-2.5168,-2.5168,-2.5206,-2.5225,-2.5248,-2.5267,-2.5267,-2.5288,-2.5286,-2.5294,-2.53,-2.5332,-2.5343,-2.5328,-2.5383,-2.537,-2.5374,-2.5374,-2.5379,-2.5382,-2.5378,-2.5319,0,0,0,0,0,-2.5147,-2.5172,-2.5193,-2.5225,-2.5235,-2.5249,-2.5263,-2.5268,-2.5287,-2.5295,-2.5309,-2.5328,-2.535,-2.5365,-2.5387,-2.5424,-2.5428,-2.5439,-2.5442,-2.5445,-2.5448,-2.5466,-2.5471,-2.542,-2.542,-2.542,0,0,-2.516,-2.5177,-2.5192,-2.5227,-2.5242,-2.5266,-2.5256,-2.5282,-2.5299,-2.5299,-2.533,-2.5341,-2.5362,-2.5397,-2.5412,-2.5407,-2.5463,-2.5448,-2.5449,-2.5451,-2.5469,-2.5474,-2.5478,-2.5422,-2.5422,-2.5421,0,0,-2.5194,-2.5211,-2.5239,-2.5254,-2.5277,-2.5286,-2.5292,-2.5315,-2.5323,-2.5355,-2.5354,-2.5374,-2.5414,-2.5428,-2.5441,-2.5479,-2.5477,-2.5486,-2.5503,-2.5521,-2.5525,-2.5528,-2.5541,-2.5545,-2.5489,-2.5489,-2.5489,0,-2.5207,-2.5244,-2.5253,-2.5279,-2.5293,-2.5294,-2.5321,-2.5335,-2.5364,-2.5373,-2.5367,-2.5415,-2.5429,-2.5466,-2.5475,-2.5486,-2.5492,-2.5483,-2.5523,-2.5527,-2.553,-2.5543,-2.5547,-2.549,-2.549,-2.549,-2.549,0,-2.5257,-2.5283,-2.5302,-2.533,-2.5347,-2.5374,-2.5385,-2.5401,-2.5403,-2.5412,-2.5444,-2.5461,-2.5485,-2.5495,-2.5497,-2.5532,-2.5527,-2.5522,-2.5509,-2.5536,-2.5547,-2.5552,-2.5491,-2.5491,-2.5491,-2.549,0,0,-2.5298,-2.533,-2.5337,-2.5349,-2.5374,-2.5393,-2.5419,-2.5443,-2.5456,-2.5475,-2.5496,-2.5529,-2.5524,-2.5538,-2.5542,-2.5558,-2.5586,-2.555,-2.5551,-2.5556,-2.5623,-2.5626,-2.5631,-2.5584,-2.5585,-2.5586,-2.562,0,-2.5335,-2.5382,-2.5389,-2.543,-2.5453,-2.5453,-2.5475,-2.5492,-2.5501,-2.552,-2.553,-2.5552,-2.5545,-2.5553,-2.5569,-2.5579,-2.5599,-2.5577,-2.5603,-2.5604,-2.5597,-2.5637,-2.5642,-2.5673,-2.5625,-2.5626,-2.5626,0,-2.5384,-2.5405,-2.5448,-2.5468,-2.5478,-2.5498,-2.5521,-2.554,-2.5558,-2.5563,-2.5579,-2.558,-2.5606,-2.5592,-2.5626,-2.5611,-2.5621,-2.5628,-2.5629,-2.5632,-2.5616,-2.564,-2.5684,-2.5688,-2.5634,-2.5633,-2.5633,0,-2.5409,-2.5447,-2.5478,-2.5488,-2.5513,-2.5527,-2.5537,-2.5555,-2.5569,-2.5588,-2.5596,-2.5618,-2.563,-2.5646,-2.5653,-2.5643,-2.5686,-2.5673,-2.569,-2.569,-2.5699,-2.5698,-2.5744,-2.5707,-2.5707,-2.5707,-2.5707,0,-2.5449,-2.5474,-2.5489,-2.5507,-2.5536,-2.5543,-2.5571,-2.5581,-2.5596,-2.5616,-2.5617,-2.5635,-2.5644,-2.5663,-2.5668,-2.5694,-2.57,-2.5704,-2.5705,-2.5704,-2.5703,-2.5711,-2.5708,-2.5708,-2.5708,-2.5707,-2.5707,0,-2.548,-2.5491,-2.5524,-2.5545,-2.555,-2.557,-2.5587,-2.5604,-2.5613,-2.5637,-2.5643,-2.5656,-2.5678,-2.5687,-2.5714,-2.5718,-2.5748,-2.5747,-2.5742,-2.5742,-2.5758,-2.5756,-2.5809,-2.5816,-2.5776,-2.5776,-2.5776,0,-2.5505,-2.5525,-2.5547,-2.5561,-2.5572,-2.5594,-2.5608,-2.5616,-2.563,-2.5651,-2.5666,-2.5688,-2.5706,-2.5741,-2.5752,-2.5772,-2.5772,-2.5789,-2.5775,-2.5772,-2.5771,-2.577,-2.5771,-2.5792,-2.5792,-2.5793,-2.5793,0,-2.5547,-2.5551,-2.5572,-2.5594,-2.561,-2.5628,-2.5645,-2.5656,-2.5666,-2.5681,-2.5704,-2.5718,-2.5746,-2.5767,-2.5788,-2.5797,-2.5796,-2.5797,-2.5802,-2.5801,-2.5796,-2.5798,-2.5748,-2.5796,-2.5796,-2.5796,-2.5795,-2.5795,-2.5575,-2.5593,-2.5611,-2.5633,-2.5647,-2.5662,-2.5679,-2.5689,-2.5709,-2.5732,-2.5735,-2.5759,-2.5775,-2.5803,-2.5814,-2.5832,-2.5827,-2.5834,-2.5836,-2.5837,-2.5838,-2.5794,-2.5835,-2.5835,-2.5835,-2.5835,-2.5835,0,-2.5617,-2.5628,-2.5649,-2.5672,-2.569,-2.5688,-2.5706,-2.572,-2.5742,-2.5757,-2.5775,-2.58,-2.5821,-2.5833,-2.5853,-2.5865,-2.5865,-2.587,-2.5869,-2.5871,-2.5841,-2.5835,-2.587,-2.587,-2.587,-2.587,-2.587,-2.587,-2.564,-2.5669,-2.5674,-2.5709,-2.572,-2.5744,-2.5754,-2.5768,-2.5781,-2.5809,-2.5826,-2.5834,-2.5848,-2.5869,-2.5887,-2.589,-2.5897,-2.5902,-2.5905,-2.5877,-2.5873,-2.587,-2.5864,-2.5904,-2.5904,-2.5933,-2.5933,-2.5933]}]]